EZY37NL EGPF-EGKK

Flight info

Callsign EZY37NL
Flight time N/A
Altitude 29000
Route NORBO T256 RIPNO DCT ADZOP DCT EGTOC DCT KEPAD L151 DISIT
Aircraft A319/M-SDE2E3FGIJ1RWXYZ/LB1

Departure

Time 2026-05-07 11:48
Airport Glasgow Airport (EGPF)

Arrival

Time N/A
Airport London Gatwick Airport (EGKK)
Time Latitude Longitude Altitude Speed Heading
2026-05-07 11:37 55.86707 -4.43053 29 ft 0 kts 254°
2026-05-07 11:39 55.86709 -4.43046 29 ft 3 kts 255°
2026-05-07 11:39 55.86714 -4.43000 29 ft 4 kts 271°
2026-05-07 11:40 55.86708 -4.42958 29 ft 4 kts 319°
2026-05-07 11:40 55.86700 -4.42948 29 ft 0 kts 344°
2026-05-07 11:44 55.86726 -4.42963 29 ft 9 kts 343°
2026-05-07 11:44 55.86790 -4.42993 29 ft 10 kts 346°
2026-05-07 11:44 55.86869 -4.42970 29 ft 13 kts 26°
2026-05-07 11:44 55.86955 -4.42892 29 ft 15 kts 26°
2026-05-07 11:45 55.87054 -4.42815 29 ft 16 kts 19°
2026-05-07 11:45 55.87157 -4.42750 29 ft 16 kts 20°
2026-05-07 11:45 55.87261 -4.42678 29 ft 17 kts 22°
2026-05-07 11:45 55.87378 -4.42598 29 ft 19 kts 26°
2026-05-07 11:46 55.87471 -4.42446 29 ft 18 kts 47°
2026-05-07 11:46 55.87546 -4.42301 29 ft 14 kts 47°
2026-05-07 11:46 55.87602 -4.42194 29 ft 12 kts 46°
2026-05-07 11:46 55.87698 -4.42021 29 ft 22 kts 44°
2026-05-07 11:47 55.87812 -4.41862 29 ft 20 kts 20°
2026-05-07 11:47 55.87920 -4.41945 29 ft 18 kts 269°
2026-05-07 11:47 55.87856 -4.42089 29 ft 13 kts 226°
2026-05-07 11:47 55.87691 -4.42394 29 ft 71 kts 226°
2026-05-07 11:48 55.87178 -4.43341 30 ft 138 kts 225°
2026-05-07 11:48 55.86470 -4.44524 661 ft 132 kts 215°
2026-05-07 11:48 55.85779 -4.45697 1207 ft 147 kts 220°
2026-05-07 11:48 55.85000 -4.47034 1697 ft 167 kts 220°
2026-05-07 11:49 55.84118 -4.48590 2189 ft 190 kts 221°
2026-05-07 11:49 55.83239 -4.50192 2651 ft 166 kts 223°
2026-05-07 11:49 55.82577 -4.51759 2559 ft 157 kts 238°
2026-05-07 11:49 55.82024 -4.53425 2299 ft 152 kts 229°
2026-05-07 11:50 55.81249 -4.54867 2770 ft 171 kts 219°
2026-05-07 11:50 55.80156 -4.56141 3037 ft 211 kts 207°
2026-05-07 11:50 55.78746 -4.57259 3560 ft 235 kts 204°
2026-05-07 11:50 55.77229 -4.58436 4565 ft 240 kts 205°
2026-05-07 11:51 55.75705 -4.59717 5579 ft 244 kts 207°
2026-05-07 11:51 55.74185 -4.61104 6638 ft 247 kts 208°
2026-05-07 11:51 55.72667 -4.62573 7658 ft 250 kts 210°
2026-05-07 11:51 55.72081 -4.63159 8062 ft 252 kts 210°
2026-05-07 11:52 55.70874 -4.64384 8539 ft 254 kts 210°
2026-05-07 11:52 55.69353 -4.65956 9482 ft 258 kts 211°
2026-05-07 11:53 55.67785 -4.67592 10255 ft 270 kts 211°
2026-05-07 11:53 55.66103 -4.69357 10630 ft 292 kts 211°
2026-05-07 11:53 55.64372 -4.71181 10846 ft 280 kts 211°
2026-05-07 11:53 55.62723 -4.72759 10966 ft 260 kts 202°
2026-05-07 11:54 55.61032 -4.73543 11086 ft 243 kts 189°
2026-05-07 11:54 55.59402 -4.73551 11206 ft 227 kts 176°
2026-05-07 11:54 55.57922 -4.72930 11331 ft 211 kts 164°
2026-05-07 11:54 55.56659 -4.71851 11440 ft 193 kts 152°
2026-05-07 11:55 55.55629 -4.70288 11155 ft 208 kts 137°
2026-05-07 11:55 55.54523 -4.68309 11045 ft 248 kts 143°
2026-05-07 11:55 55.53127 -4.66305 11425 ft 270 kts 147°
2026-05-07 11:55 55.51547 -4.64240 11772 ft 294 kts 148°
2026-05-07 11:56 55.49833 -4.62012 12126 ft 316 kts 147°
2026-05-07 11:56 55.48052 -4.59629 12796 ft 325 kts 146°
2026-05-07 11:56 55.46253 -4.57151 13598 ft 331 kts 146°
2026-05-07 11:56 55.44438 -4.54598 14334 ft 336 kts 145°
2026-05-07 11:57 55.42608 -4.51995 15072 ft 340 kts 144°
2026-05-07 11:57 55.40760 -4.49358 15799 ft 344 kts 144°
2026-05-07 11:57 55.38912 -4.46721 16511 ft 349 kts 144°
2026-05-07 11:57 55.37019 -4.44021 17204 ft 353 kts 144°
2026-05-07 11:58 55.35096 -4.41289 17883 ft 358 kts 144°
2026-05-07 11:58 55.33147 -4.38530 18525 ft 362 kts 144°
2026-05-07 11:58 55.31171 -4.35744 19157 ft 365 kts 144°
2026-05-07 11:58 55.29181 -4.32946 19814 ft 368 kts 145°
2026-05-07 11:59 55.27179 -4.30134 20493 ft 370 kts 144°
2026-05-07 11:59 55.25166 -4.27305 21139 ft 372 kts 144°
2026-05-07 11:59 55.23138 -4.24456 21794 ft 375 kts 144°
2026-05-07 11:59 55.21126 -4.21633 22441 ft 377 kts 144°
2026-05-07 12:00 55.19064 -4.18739 22954 ft 383 kts 144°
2026-05-07 12:00 55.17063 -4.15655 23632 ft 386 kts 137°
2026-05-07 12:00 55.15207 -4.12237 24150 ft 389 kts 136°
2026-05-07 12:00 55.13341 -4.08796 24651 ft 391 kts 136°
2026-05-07 12:01 55.11463 -4.05328 25145 ft 394 kts 136°
2026-05-07 12:01 55.09573 -4.01837 25606 ft 397 kts 136°
2026-05-07 12:01 55.07666 -3.98321 26066 ft 400 kts 137°
2026-05-07 12:01 55.05740 -3.94780 26526 ft 403 kts 137°
2026-05-07 12:02 55.03827 -3.91270 26973 ft 406 kts 137°
2026-05-07 12:02 55.01871 -3.87691 27412 ft 409 kts 137°
2026-05-07 12:02 54.99896 -3.84083 27844 ft 413 kts 136°
2026-05-07 12:02 54.97908 -3.80458 28265 ft 416 kts 136°
2026-05-07 12:03 54.95898 -3.76802 28674 ft 420 kts 136°
2026-05-07 12:03 54.93873 -3.73122 29089 ft 423 kts 136°
2026-05-07 12:03 54.91832 -3.69420 29537 ft 425 kts 136°
2026-05-07 12:03 54.89778 -3.65700 29932 ft 428 kts 136°
2026-05-07 12:04 54.87725 -3.61988 30014 ft 421 kts 136°
2026-05-07 12:04 54.85766 -3.58440 30017 ft 404 kts 136°
2026-05-07 12:04 54.83857 -3.54987 30015 ft 389 kts 136°
2026-05-07 12:04 54.82019 -3.51672 30016 ft 374 kts 137°
2026-05-07 12:05 54.80254 -3.48497 30018 ft 360 kts 137°
2026-05-07 12:05 54.78550 -3.45443 30018 ft 345 kts 137°
2026-05-07 12:05 54.76915 -3.42515 30017 ft 331 kts 137°
2026-05-07 12:05 54.75341 -3.39739 30015 ft 315 kts 141°
2026-05-07 12:06 54.73687 -3.37439 30015 ft 296 kts 150°
2026-05-07 12:06 54.71996 -3.35716 30013 ft 277 kts 158°
2026-05-07 12:06 54.70276 -3.34465 29856 ft 263 kts 164°
2026-05-07 12:06 54.68512 -3.33632 29228 ft 266 kts 171°
2026-05-07 12:07 54.66662 -3.33219 28572 ft 270 kts 178°
2026-05-07 12:07 54.64807 -3.33261 28262 ft 262 kts 186°
2026-05-07 12:07 54.63054 -3.33732 28074 ft 250 kts 194°
2026-05-07 12:07 54.61397 -3.34603 27590 ft 250 kts 201°
2026-05-07 12:08 54.59797 -3.35902 26953 ft 258 kts 209°
2026-05-07 12:08 54.58313 -3.37606 26608 ft 254 kts 217°
2026-05-07 12:08 54.57044 -3.39578 26391 ft 246 kts 224°
2026-05-07 12:08 54.55959 -3.41841 25983 ft 246 kts 232°
2026-05-07 12:09 54.55064 -3.44387 25470 ft 251 kts 240°
2026-05-07 12:09 54.54391 -3.47167 25131 ft 250 kts 248°
2026-05-07 12:09 54.53969 -3.50050 24839 ft 247 kts 256°
2026-05-07 12:09 54.53799 -3.53005 24455 ft 249 kts 264°
2026-05-07 12:10 54.53880 -3.56015 24026 ft 254 kts 272°
2026-05-07 12:10 54.54218 -3.59008 23685 ft 255 kts 280°
2026-05-07 12:10 54.54795 -3.61840 23374 ft 254 kts 289°
2026-05-07 12:10 54.55610 -3.64533 22966 ft 255 kts 297°
2026-05-07 12:11 54.56652 -3.67025 22527 ft 258 kts 305°
2026-05-07 12:11 54.57897 -3.69248 22165 ft 258 kts 314°
2026-05-07 12:11 54.59307 -3.71133 21829 ft 257 kts 322°
2026-05-07 12:11 54.60863 -3.72662 21420 ft 259 kts 330°
2026-05-07 12:12 54.62545 -3.73807 21042 ft 261 kts 339°
2026-05-07 12:12 54.64306 -3.74532 20715 ft 260 kts 348°
2026-05-07 12:12 54.66073 -3.74817 20411 ft 258 kts 356°
2026-05-07 12:12 54.67865 -3.74670 20070 ft 258 kts
2026-05-07 12:13 54.69630 -3.74086 19712 ft 259 kts 13°
2026-05-07 12:13 54.71338 -3.73071 19375 ft 259 kts 22°
2026-05-07 12:13 54.72926 -3.71661 19125 ft 254 kts 31°
2026-05-07 12:13 54.74365 -3.69896 18788 ft 254 kts 39°
2026-05-07 12:14 54.75653 -3.67778 18401 ft 256 kts 48°
2026-05-07 12:14 54.76738 -3.65382 18161 ft 249 kts 57°
2026-05-07 12:14 54.77591 -3.62802 17828 ft 246 kts 66°
2026-05-07 12:14 54.78218 -3.60027 17364 ft 249 kts 75°
2026-05-07 12:15 54.78593 -3.57173 17065 ft 244 kts 84°
2026-05-07 12:15 54.78719 -3.54293 16798 ft 237 kts 94°
2026-05-07 12:15 54.78595 -3.51454 16366 ft 237 kts 103°
2026-05-07 12:15 54.78218 -3.48683 16025 ft 234 kts 112°
2026-05-07 12:16 54.77612 -3.46120 15785 ft 226 kts 121°
2026-05-07 12:16 54.76804 -3.43822 15436 ft 223 kts 130°
2026-05-07 12:16 54.76020 -3.42183 15124 ft 222 kts 137°